When you browse on this site, cookies collect data to enhance your experience and personalize the content and advertising you see.
Visit our Privacy Policy to learn more. By continuing to use the site, you agree to this use of cookies and data.

Hourly Weather Boston

Today, 5 July, Sunday

Time Temperature Precipitation Wind Pressure Humidity
00:00 +17°C° 0 mm 9 mps 753 mmHg 78%
01:00 +18°C° 0 mm 9 mps 753 mmHg 77%
02:00 +18°C° 0 mm 10 mps 752 mmHg 77%
03:00 +19°C° 0 mm 10 mps 752 mmHg 76%
04:00 +18°C° 0.1 mm 10 mps 752 mmHg 77%
05:00 +17°C° 0.1 mm 10 mps 752 mmHg 78%
06:00 +17°C° 0.1 mm 10 mps 752 mmHg 79%
07:00 +17°C° 0 mm 10 mps 753 mmHg 74%
08:00 +16°C° 0 mm 10 mps 754 mmHg 70%
09:00 +16°C° 0 mm 10 mps 754 mmHg 65%
10:00 +16°C° 0 mm 9 mps 755 mmHg 64%
11:00 +16°C° 0 mm 9 mps 755 mmHg 63%
12:00 +16°C° 0 mm 9 mps 755 mmHg 62%
13:00 +16°C° 0 mm 9 mps 755 mmHg 62%
14:00 +16°C° 0 mm 9 mps 755 mmHg 63%
15:00 +16°C° 0 mm 9 mps 756 mmHg 63%
16:00 +15°C° 0 mm 9 mps 756 mmHg 65%
17:00 +15°C° 0 mm 9 mps 756 mmHg 67%
18:00 +15°C° 0 mm 8 mps 756 mmHg 68%
19:00 +13°C° 0 mm 8 mps 756 mmHg 68%
20:00 +12°C° 0 mm 8 mps 756 mmHg 68%
21:00 +11°C° 0 mm 8 mps 756 mmHg 69%
22:00 +11°C° 0 mm 8 mps 756 mmHg 70%
23:00 +11°C° 0 mm 8 mps 756 mmHg 71%

Tomorrow, 6 July, Monday

Time Temperature Precipitation Wind Pressure Humidity
00:00 +11°C° 0 mm 8 mps 756 mmHg 73%
01:00 +10°C° 0 mm 8 mps 757 mmHg 75%
02:00 +10°C° 0 mm 7 mps 757 mmHg 77%
03:00 +9°C° 0 mm 7 mps 757 mmHg 79%
04:00 +10°C° 0 mm 7 mps 758 mmHg 78%
05:00 +11°C° 0 mm 8 mps 758 mmHg 77%
06:00 +11°C° 0 mm 8 mps 758 mmHg 76%
07:00 +12°C° 0.1 mm 8 mps 759 mmHg 76%
08:00 +12°C° 0.1 mm 8 mps 760 mmHg 76%
09:00 +13°C° 0.1 mm 8 mps 760 mmHg 76%
10:00 +15°C° 0.3 mm 7 mps 761 mmHg 72%
11:00 +16°C° 0.3 mm 6 mps 762 mmHg 68%
12:00 +17°C° 0.3 mm 6 mps 762 mmHg 64%
13:00 +17°C° 0.1 mm 5 mps 763 mmHg 63%
14:00 +17°C° 0.1 mm 5 mps 764 mmHg 63%
15:00 +19°C° 0.1 mm 4 mps 764 mmHg 63%
16:00 +17°C° 0.1 mm 4 mps 765 mmHg 67%
17:00 +16°C° 0.1 mm 3 mps 765 mmHg 71%
18:00 +14°C° 0.1 mm 3 mps 765 mmHg 75%
19:00 +13°C° 0 mm 3 mps 765 mmHg 78%
20:00 +13°C° 0 mm 2 mps 766 mmHg 81%
21:00 +10°C° 0 mm 2 mps 766 mmHg 83%
22:00 +10°C° 0 mm 2 mps 766 mmHg 84%
23:00 +10°C° 0 mm 2 mps 766 mmHg 85%

Day after tomorrow, 7 July, Tuesday

Time Temperature Precipitation Wind Pressure Humidity
00:00 +9°C° 0 mm 2 mps 766 mmHg 86%
01:00 +9°C° 0 mm 3 mps 766 mmHg 86%
02:00 +9°C° 0 mm 3 mps 766 mmHg 85%
03:00 +8°C° 0 mm 3 mps 765 mmHg 84%
04:00 +9°C° 0 mm 3 mps 765 mmHg 83%
05:00 +11°C° 0 mm 4 mps 765 mmHg 82%
06:00 +12°C° 0 mm 4 mps 764 mmHg 81%
07:00 +13°C° 0 mm 4 mps 764 mmHg 78%
08:00 +14°C° 0 mm 4 mps 764 mmHg 76%
09:00 +15°C° 0 mm 5 mps 764 mmHg 73%
10:00 +14°C° 0.2 mm 5 mps 763 mmHg 78%
11:00 +13°C° 0.2 mm 4 mps 763 mmHg 82%
12:00 +13°C° 0.2 mm 4 mps 763 mmHg 87%
13:00 +13°C° 0.4 mm 4 mps 762 mmHg 89%
14:00 +13°C° 0.4 mm 3 mps 762 mmHg 91%
15:00 +13°C° 0.4 mm 3 mps 761 mmHg 92%
16:00 +13°C° 0.1 mm 4 mps 761 mmHg 92%
17:00 +14°C° 0.1 mm 5 mps 760 mmHg 91%
18:00 +14°C° 0.1 mm 6 mps 760 mmHg 90%
19:00 +14°C° 0 mm 6 mps 760 mmHg 91%
20:00 +14°C° 0 mm 5 mps 760 mmHg 92%
21:00 +14°C° 0 mm 5 mps 760 mmHg 93%
22:00 +13°C° 0.1 mm 5 mps 760 mmHg 94%
23:00 +13°C° 0.1 mm 4 mps 760 mmHg 95%

8 July, Wednesday

Time Temperature Precipitation Wind Pressure Humidity
00:00 +13°C° 0.1 mm 4 mps 760 mmHg 95%
01:00 +13°C° 0 mm 4 mps 760 mmHg 96%
02:00 +12°C° 0 mm 4 mps 760 mmHg 96%
03:00 +12°C° 0 mm 4 mps 760 mmHg 96%
04:00 +12°C° 0 mm 4 mps 761 mmHg 95%
05:00 +13°C° 0 mm 4 mps 761 mmHg 93%
06:00 +13°C° 0 mm 4 mps 762 mmHg 91%
07:00 +13°C° 0.1 mm 4 mps 762 mmHg 87%
08:00 +14°C° 0.1 mm 4 mps 763 mmHg 82%
09:00 +15°C° 0.1 mm 4 mps 764 mmHg 78%
10:00 +17°C° 0.1 mm 4 mps 764 mmHg 74%
11:00 +17°C° 0.1 mm 4 mps 764 mmHg 70%
12:00 +18°C° 0.1 mm 4 mps 764 mmHg 66%
13:00 +18°C° 0 mm 4 mps 765 mmHg 65%
14:00 +18°C° 0 mm 3 mps 765 mmHg 65%
15:00 +18°C° 0 mm 3 mps 765 mmHg 65%
16:00 +17°C° 0 mm 3 mps 765 mmHg 68%
17:00 +17°C° 0 mm 3 mps 765 mmHg 71%
18:00 +16°C° 0 mm 3 mps 765 mmHg 74%
19:00 +14°C° 0 mm 4 mps 765 mmHg 78%
20:00 +13°C° 0 mm 4 mps 765 mmHg 82%
21:00 +12°C° 0 mm 4 mps 765 mmHg 86%
22:00 +12°C° 0 mm 4 mps 765 mmHg 87%
23:00 +12°C° 0 mm 5 mps 765 mmHg 88%

9 July, Thursday

Time Temperature Precipitation Wind Pressure Humidity
00:00 +12°C° 0 mm 5 mps 764 mmHg 90%
01:00 +12°C° 0 mm 5 mps 764 mmHg 91%
02:00 +12°C° 0 mm 5 mps 764 mmHg 93%
03:00 +12°C° 0 mm 5 mps 763 mmHg 95%
04:00 +12°C° 0 mm 5 mps 763 mmHg 92%
05:00 +13°C° 0 mm 5 mps 762 mmHg 89%
06:00 +14°C° 0 mm 6 mps 762 mmHg 86%
07:00 +14°C° 0.2 mm 6 mps 762 mmHg 86%
08:00 +15°C° 0.2 mm 5 mps 761 mmHg 87%
09:00 +15°C° 0.2 mm 5 mps 761 mmHg 87%
10:00 +16°C° 0.2 mm 6 mps 760 mmHg 85%
11:00 +17°C° 0.2 mm 7 mps 760 mmHg 83%
12:00 +18°C° 0.2 mm 8 mps 759 mmHg 80%
13:00 +18°C° 0.1 mm 8 mps 758 mmHg 79%
14:00 +20°C° 0.1 mm 8 mps 758 mmHg 78%
15:00 +20°C° 0.1 mm 8 mps 757 mmHg 78%
16:00 +18°C° 0.3 mm 9 mps 756 mmHg 79%
17:00 +18°C° 0.3 mm 9 mps 756 mmHg 80%
18:00 +17°C° 0.3 mm 10 mps 755 mmHg 82%
19:00 +16°C° 0 mm 9 mps 755 mmHg 80%
20:00 +13°C° 0 mm 9 mps 755 mmHg 78%
21:00 +11°C° 0 mm 8 mps 755 mmHg 76%
22:00 +11°C° 0 mm 9 mps 755 mmHg 73%
23:00 +11°C° 0 mm 10 mps 755 mmHg 70%

10 July, Friday

Time Temperature Precipitation Wind Pressure Humidity
00:00 +12°C° 0 mm 11 mps 755 mmHg 67%
01:00 +12°C° 0 mm 11 mps 755 mmHg 66%
02:00 +12°C° 0 mm 11 mps 755 mmHg 65%
03:00 +12°C° 0 mm 11 mps 754 mmHg 64%
04:00 +12°C° 0 mm 11 mps 755 mmHg 68%
05:00 +12°C° 0 mm 11 mps 755 mmHg 71%
06:00 +12°C° 0 mm 10 mps 755 mmHg 74%
07:00 +12°C° 0.1 mm 9 mps 756 mmHg 76%
08:00 +12°C° 0.1 mm 9 mps 757 mmHg 78%
09:00 +12°C° 0.1 mm 8 mps 758 mmHg 81%
10:00 +13°C° 0.1 mm 8 mps 759 mmHg 76%
11:00 +14°C° 0.1 mm 7 mps 759 mmHg 72%
12:00 +15°C° 0.1 mm 7 mps 760 mmHg 67%
13:00 +16°C° 0.1 mm 6 mps 761 mmHg 65%
14:00 +16°C° 0.1 mm 6 mps 761 mmHg 62%
15:00 +16°C° 0.1 mm 5 mps 762 mmHg 60%
16:00 +16°C° 0.2 mm 5 mps 762 mmHg 65%
17:00 +15°C° 0.2 mm 4 mps 762 mmHg 70%
18:00 +16°C° 0.2 mm 3 mps 763 mmHg 75%
19:00 +15°C° 0.1 mm 2 mps 763 mmHg 78%
20:00 +13°C° 0.1 mm 2 mps 764 mmHg 82%
21:00 +12°C° 0.1 mm 1 mps 764 mmHg 85%
22:00 +10°C° 0 mm 2 mps 765 mmHg 87%
23:00 +10°C° 0 mm 3 mps 765 mmHg 90%
Show more